Location: Unspecified
(0.0000°N, 0.0000°E)
Time: 00:16:00
(UTC+00:00)

Vanguard 2 - Visible Passes

Search period start: 02 August 2015 00:00
Search period end: 12 August 2015 00:00
Orbit: 554 x 2943 km, 32.9° (Epoch: 01 August)

Date Brightness Start Highest point End Pass type
(mag) Time Alt. Az. Time Alt. Az. Time Alt. Az.
02 Aug 11.4 00:21:04 21° N 00:21:04 21° N 00:29:36 10° NNE visible
02 Aug 11.8 02:26:50 10° NNW 02:35:44 16° N 02:45:04 10° NNE visible
02 Aug 11.8 04:41:14 10° NNW 04:53:39 23° NNE 05:04:46 10° ENE visible
02 Aug 8.3 20:06:25 10° SW 20:12:40 78° SE 20:13:58 65° E visible
02 Aug 11.1 22:36:25 - NE 22:36:25 - NE 22:15:34 10° W visible
03 Aug 11.5 00:37:49 18° NNW 00:38:35 18° N 00:48:24 10° NNE visible
03 Aug 11.8 02:47:05 10° NNW 02:56:25 16° N 03:06:16 10° NE visible
03 Aug 11.6 04:59:53 10° NNW 05:13:47 29° NNE 05:25:34 10° ENE visible
03 Aug 8.6 20:25:04 10° WSW 20:31:28 72° NNW 20:33:08 59° NNE visible
03 Aug 11.3 22:53:10 12° NNE 22:53:10 12° NNE 22:54:20 10° NNE visible
04 Aug 11.6 00:54:34 14° NNW 00:59:02 16° N 01:07:39 10° NNE visible
04 Aug 11.9 03:06:34 10° NNW 03:17:01 19° NNE 03:27:55 10° NE visible
04 Aug 11.4 05:18:25 10° NW 05:33:41 36° NNE 05:45:53 10° E visible
04 Aug 8.5 18:36:45 10° SSW 18:41:20 34° SE 18:48:14 10° ENE visible
04 Aug 9.3 20:44:02 10° WSW 20:50:30 49° NNW 20:52:32 43° N visible
04 Aug 11.5 23:09:54 14° NNE 23:09:54 14° NNE 23:12:41 10° NNE visible
05 Aug 11.7 01:12:19 10° NNW 01:19:35 15° N 01:27:45 10° NNE visible
05 Aug 11.8 03:25:30 10° NNW 03:37:26 22° NNE 03:49:32 10° ENE visible
05 Aug 11.1 05:36:57 10° NW 05:53:21 46° NNE 06:05:44 10° E visible
05 Aug 8.0 18:54:54 10° SW 18:59:51 59° SE 19:07:48 10° ENE visible
05 Aug 9.9 21:03:22 10° W 21:09:47 34° NNW 21:12:13 30° N visible
05 Aug 11.5 23:26:36 15° N 23:26:36 15° N 23:31:05 10° NNE visible
06 Aug 11.8 01:32:34 10° NNW 01:40:11 15° N 01:48:54 10° NE visible
06 Aug 11.7 03:44:09 10° NNW 03:57:38 27° NNE 04:10:45 10° ENE visible
06 Aug 8.0 19:13:23 10° WSW 19:18:30 84° NW 19:26:53 10° NE visible
06 Aug 10.4 21:23:09 10° WNW 21:29:16 24° NNW 21:32:12 21° N visible
06 Aug 11.5 23:43:15 13° N 23:43:35 13° N 23:49:44 10° NNE visible
07 Aug 11.8 01:52:01 10° NNW 02:00:45 17° NNE 02:10:49 10° NE visible
07 Aug 11.4 04:02:38 10° NNW 04:17:36 34° NNE 04:31:28 10° E visible
07 Aug 8.7 19:32:13 10° WSW 19:37:22 52° NNW 19:45:37 10° NE visible
07 Aug 10.8 21:43:30 10° NW 21:48:57 18° NNW 21:52:35 15° N visible
07 Aug 11.6 23:59:42 10° NNW 00:03:57 12° N 00:09:07 10° NNE visible
08 Aug 11.8 02:10:51 10° NNW 02:21:09 20° NNE 02:32:53 10° ENE visible
08 Aug 11.2 04:21:06 10° NW 04:37:20 43° NNE 04:51:39 10° E visible
08 Aug 9.5 19:51:26 10° W 19:56:28 33° NNW 20:04:02 10° NE visible
08 Aug 11.2 22:04:34 10° NW 22:08:49 13° N 22:13:40 10° NNE visible
09 Aug 11.7 00:19:46 10° NNW 00:24:24 12° N 00:29:55 10° NNE visible
09 Aug 11.6 02:29:23 10° NNW 02:41:20 24° NNE 02:54:39 10° ENE visible
09 Aug 10.9 04:39:37 10° NW 04:56:50 54° NNE 05:11:23 10° ESE visible
09 Aug 10.2 20:11:08 10° WNW 20:15:47 22° NNW 20:22:06 10° NNE visible
09 Aug 11.4 22:27:02 10° NNW 22:28:50 10° N 22:30:38 10° N visible
10 Aug 11.7 00:38:57 10° NNW 00:44:49 13° NNE 00:52:06 10° NE visible
10 Aug 11.4 02:47:46 10° NNW 03:01:17 30° NNE 03:15:52 10° E visible
10 Aug 10.6 04:58:14 10° NW 05:16:08 68° NNE 05:30:44 10° ESE visible
10 Aug 10.6 20:31:34 10° NW 20:35:17 15° NNW 20:39:44 10° NNE visible
11 Aug 11.7 00:57:29 10° NNW 01:05:08 16° NNE 01:14:43 10° NE visible
11 Aug 11.2 03:06:06 10° NNW 03:20:59 38° NNE 03:36:30 10° E visible
11 Aug 10.4 05:17:02 10° NW 05:35:16 84° NE 05:49:45 10° ESE visible
11 Aug 9.2 18:39:34 10° W 18:43:40 32° NNW 18:49:22 10° NE visible
11 Aug 11.0 20:54:10 10° NNW 20:54:57 10° N 20:55:34 10° N visible
